| time (UTC) | temp F | wind direction | speed MPH | gust MPH | rain 1hr in | rain 24hr in | rain mn in | humidity % | barometer mb |
| 20260831050702 | 50 | 153 | 4.0 | 1.0 | 0.00 | 0.00 | 0.00 | 56 | 1016.4 |
| 20260831050203 | 49 | 165 | 0.0 | 2.0 | 0.00 | 0.00 | 0.00 | 56 | 1016.5 |
| 20260831045701 | 49 | 193 | 2.0 | 0.0 | 0.00 | 0.00 | 0.00 | 56 | 1016.5 |
| 20260831044703 | 48 | 187 | 1.0 | 0.0 | 0.00 | 0.00 | 0.00 | 56 | 1016.5 |
| 20260831043705 | 48 | 191 | 2.0 | 2.0 | 0.00 | 0.00 | 0.00 | 55 | 1016.5 |
| 20260831043204 | 48 | 221 | 1.0 | 1.0 | 0.00 | 0.00 | 0.00 | 54 | 1016.6 |
| 20260831042705 | 48 | 210 | 1.0 | 3.0 | 0.00 | 0.00 | 0.00 | 54 | 1016.6 |
| 20260831041707 | 48 | 217 | 0.0 | 2.0 | 0.00 | 0.00 | 0.00 | 53 | 1016.6 |
| 20260831040706 | 49 | 170 | 0.0 | 0.0 | 0.00 | 0.00 | 0.00 | 52 | 1016.6 |
| 20260831040207 | 49 | 170 | 0.0 | 0.0 | 0.00 | 0.00 | 0.00 | 52 | 1016.6 |
| 20260831035708 | 49 | 210 | 0.0 | 0.0 | 0.00 | 0.00 | 0.00 | 52 | 1016.7 |
| 20260831035209 | 49 | 205 | 1.0 | 2.0 | 0.00 | 0.00 | 0.00 | 52 | 1016.7 |
| 20260831034710 | 49 | 89 | 0.0 | 0.0 | 0.00 | 0.00 | 0.00 | 52 | 1016.6 |
| 20260831034208 | 49 | 294 | 0.0 | 0.0 | 0.00 | 0.00 | 0.00 | 53 | 1016.6 |
| 20260831033713 | 50 | 294 | 0.0 | 0.0 | 0.00 | 0.00 | 0.00 | 53 | 1016.6 |
| 20260831033210 | 50 | 294 | 0.0 | 0.0 | 0.00 | 0.00 | 0.00 | 52 | 1016.6 |
| 20260831032212 | 52 | 294 | 0.0 | 0.0 | 0.00 | 0.00 | 0.00 | 51 | 1016.6 |
| 20260831031711 | 53 | 294 | 0.0 | 0.0 | 0.00 | 0.00 | 0.00 | 50 | 1016.7 |
| 20260831031212 | 53 | 294 | 0.0 | 0.0 | 0.00 | 0.00 | 0.00 | 49 | 1016.6 |
| 20260831030713 | 54 | 294 | 0.0 | 0.0 | 0.00 | 0.00 | 0.00 | 48 | 1016.6 |
| 20260831030214 | 55 | 294 | 0.0 | 0.0 | 0.00 | 0.00 | 0.00 | 47 | 1016.7 |
| 20260831025715 | 55 | 294 | 0.0 | 0.0 | 0.00 | 0.00 | 0.00 | 46 | 1016.6 |
| 20260831025213 | 56 | 294 | 0.0 | 0.0 | 0.00 | 0.00 | 0.00 | 44 | 1016.6 |
| 20260831024714 | 57 | 294 | 0.0 | 0.0 | 0.00 | 0.00 | 0.00 | 44 | 1016.5 |
| 20260831024215 | 57 | 294 | 0.0 | 0.0 | 0.00 | 0.00 | 0.00 | 43 | 1016.5 |
| 20260831023716 | 58 | 294 | 0.0 | 0.0 | 0.00 | 0.00 | 0.00 | 42 | 1016.6 |
| 20260831023217 | 58 | 294 | 0.0 | 0.0 | 0.00 | 0.00 | 0.00 | 41 | 1016.5 |
| 20260831022715 | 58 | 294 | 1.0 | 0.0 | 0.00 | 0.00 | 0.00 | 41 | 1016.6 |
| 20260831022216 | 59 | 280 | 1.0 | 0.0 | 0.00 | 0.00 | 0.00 | 40 | 1016.6 |
| 20260831021717 | 59 | 273 | 1.0 | 0.0 | 0.00 | 0.00 | 0.00 | 39 | 1016.6 |
| 20260831020720 | 60 | 300 | 1.0 | 1.0 | 0.00 | 0.00 | 0.00 | 37 | 1016.7 |
| 20260831020218 | 60 | 285 | 0.0 | 0.0 | 0.00 | 0.00 | 0.00 | 36 | 1016.7 |
| 20260831015719 | 60 | 305 | 1.0 | 3.0 | 0.00 | 0.00 | 0.00 | 36 | 1016.7 |
| 20260831015227 | 61 | 305 | 1.0 | 2.0 | 0.00 | 0.00 | 0.00 | 35 | 1016.7 |
| 20260831014721 | 61 | 305 | 3.0 | 3.0 | 0.00 | 0.00 | 0.00 | 34 | 1016.7 |
| 20260831014222 | 62 | 290 | 4.0 | 3.0 | 0.00 | 0.00 | 0.00 | 33 | 1016.7 |
| 20260831013721 | 62 | 302 | 1.0 | 4.0 | 0.00 | 0.00 | 0.00 | 32 | 1016.7 |
| 20260831013222 | 62 | 274 | 4.0 | 0.0 | 0.00 | 0.00 | 0.00 | 31 | 1016.9 |
| 20260831012723 | 62 | 326 | 3.0 | 3.0 | 0.00 | 0.00 | 0.00 | 31 | 1016.9 |
| 20260831012224 | 63 | 307 | 2.0 | 2.0 | 0.00 | 0.00 | 0.00 | 30 | 1016.9 |
| 20260831011223 | 63 | 295 | 2.0 | 2.0 | 0.00 | 0.00 | 0.00 | 28 | 1016.9 |
| 20260831010724 | 63 | 267 | 3.0 | 1.0 | 0.00 | 0.00 | 0.00 | 26 | 1016.9 |
| 20260831005227 | 64 | 302 | 1.0 | 1.0 | 0.00 | 0.00 | 0.00 | 25 | 1017.0 |
| 20260831004726 | 64 | 330 | 4.0 | 1.0 | 0.00 | 0.00 | 0.00 | 24 | 1017.0 |
| 20260831004227 | 64 | 304 | 3.0 | 1.0 | 0.00 | 0.00 | 0.00 | 23 | 1017.0 |
| 20260831003229 | 64 | 316 | 2.0 | 2.0 | 0.00 | 0.00 | 0.00 | 23 | 1017.0 |
| 20260831002730 | 65 | 319 | 3.0 | 4.0 | 0.00 | 0.00 | 0.00 | 23 | 1017.0 |
| 20260831002228 | 64 | 280 | 1.0 | 7.0 | 0.00 | 0.00 | 0.00 | 23 | 1017.0 |
| 20260831001729 | 64 | 287 | 1.0 | 0.0 | 0.00 | 0.00 | 0.00 | 23 | 1017.1 |
| 20260831001230 | 64 | 343 | 4.0 | 3.0 | 0.00 | 0.00 | 0.00 | 23 | 1017.1 |
| 20260831000731 | 65 | 319 | 3.0 | 4.0 | 0.00 | 0.00 | 0.00 | 22 | 1017.1 |
| 20260831000233 | 65 | 345 | 4.0 | 2.0 | 0.00 | 0.00 | 0.00 | 21 | 1017.1 |
| 20260830235730 | 65 | 311 | 2.0 | 4.0 | 0.00 | 0.00 | 0.00 | 21 | 1017.1 |
| 20260830235231 | 64 | 274 | 2.0 | 2.0 | 0.00 | 0.00 | 0.00 | 22 | 1017.2 |
| 20260830234733 | 64 | 307 | 2.0 | 1.0 | 0.00 | 0.00 | 0.00 | 22 | 1017.2 |
| 20260830234234 | 64 | 294 | 3.0 | 2.0 | 0.00 | 0.00 | 0.00 | 23 | 1017.3 |
| 20260830233735 | 64 | 319 | 2.0 | 5.0 | 0.00 | 0.00 | 0.00 | 23 | 1017.3 |
| 20260830232734 | 64 | 269 | 2.0 | 0.0 | 0.00 | 0.00 | 0.00 | 24 | 1017.3 |
| 20260830232235 | 65 | 316 | 3.0 | 3.0 | 0.00 | 0.00 | 0.00 | 22 | 1017.3 |
| 20260830231237 | 65 | 246 | 2.0 | 3.0 | 0.00 | 0.00 | 0.00 | 23 | 1017.5 |
| 20260830230736 | 65 | 201 | 3.0 | 1.0 | 0.00 | 0.00 | 0.00 | 22 | 1017.6 |
| 20260830230237 | 65 | 233 | 2.0 | 1.0 | 0.00 | 0.00 | 0.00 | 22 | 1017.6 |
| 20260830225738 | 65 | 312 | 2.0 | 4.0 | 0.00 | 0.00 | 0.00 | 21 | 1017.6 |
| 20260830225242 | 65 | 8 | 5.0 | 3.0 | 0.00 | 0.00 | 0.00 | 21 | 1017.6 |
| 20260830224740 | 65 | 316 | 3.0 | 4.0 | 0.00 | 0.00 | 0.00 | 20 | 1017.6 |
| 20260830224238 | 65 | 301 | 4.0 | 3.0 | 0.00 | 0.00 | 0.00 | 18 | 1017.6 |
| 20260830223241 | 65 | 307 | 6.0 | 5.0 | 0.00 | 0.00 | 0.00 | 20 | 1017.7 |
| 20260830222808 | 64 | 17 | 2.0 | 2.0 | 0.00 | 0.00 | 0.00 | 21 | 1017.7 |
| 20260830221741 | 65 | 336 | 4.0 | 5.0 | 0.00 | 0.00 | 0.00 | 20 | 1017.9 |
| 20260830221243 | 65 | 338 | 3.0 | 2.0 | 0.00 | 0.00 | 0.00 | 20 | 1017.9 |
| 20260830220744 | 65 | 285 | 1.0 | 2.0 | 0.00 | 0.00 | 0.00 | 21 | 1017.9 |
| 20260830215746 | 65 | 138 | 3.0 | 1.0 | 0.00 | 0.00 | 0.00 | 18 | 1018.2 |
| 20260830215244 | 65 | 307 | 3.0 | 3.0 | 0.00 | 0.00 | 0.00 | 18 | 1018.2 |
| 20260830214745 | 65 | 343 | 5.0 | 4.0 | 0.00 | 0.00 | 0.00 | 18 | 1018.2 |
| 20260830214246 | 65 | 314 | 5.0 | 6.0 | 0.00 | 0.00 | 0.00 | 19 | 1018.2 |
| 20260830213747 | 65 | 322 | 4.0 | 5.0 | 0.00 | 0.00 | 0.00 | 19 | 1018.3 |
| 20260830213248 | 64 | 309 | 1.0 | 5.0 | 0.00 | 0.00 | 0.00 | 17 | 1018.3 |
| 20260830212747 | 64 | 323 | 3.0 | 3.0 | 0.00 | 0.00 | 0.00 | 17 | 1018.3 |
| 20260830211749 | 64 | 3 | 3.0 | 2.0 | 0.00 | 0.00 | 0.00 | 19 | 1018.4 |
| 20260830211250 | 64 | 94 | 2.0 | 3.0 | 0.00 | 0.00 | 0.00 | 16 | 1018.4 |
| 20260830205751 | 64 | 256 | 2.0 | 3.0 | 0.00 | 0.00 | 0.00 | 20 | 1018.4 |
| 20260830205252 | 63 | 336 | 3.0 | 4.0 | 0.00 | 0.00 | 0.00 | 20 | 1018.4 |
| 20260830203803 | 64 | 316 | 0.0 | 4.0 | 0.00 | 0.00 | 0.00 | 20 | 1018.4 |
| 20260830203253 | 63 | 283 | 2.0 | 4.0 | 0.00 | 0.00 | 0.00 | 21 | 1018.4 |
| 20260830202755 | 63 | 314 | 2.0 | 7.0 | 0.00 | 0.00 | 0.00 | 21 | 1018.3 |
| 20260830202256 | 63 | 308 | 4.0 | 5.0 | 0.00 | 0.00 | 0.00 | 23 | 1018.3 |
| 20260830201255 | 63 | 210 | 4.0 | 1.0 | 0.00 | 0.00 | 0.00 | 22 | 1018.3 |
| 20260830200756 | 63 | 328 | 3.0 | 1.0 | 0.00 | 0.00 | 0.00 | 23 | 1018.3 |
| 20260830200257 | 62 | 281 | 3.0 | 2.0 | 0.00 | 0.00 | 0.00 | 24 | 1018.3 |
| 20260830195758 | 62 | 288 | 3.0 | 4.0 | 0.00 | 0.00 | 0.00 | 28 | 1018.3 |
| 20260830195259 | 62 | 314 | 5.0 | 5.0 | 0.00 | 0.00 | 0.00 | 29 | 1018.3 |
| 20260830194757 | 61 | 307 | 4.0 | 2.0 | 0.00 | 0.00 | 0.00 | 30 | 1018.4 |
| 20260830194258 | 61 | 215 | 1.0 | 1.0 | 0.00 | 0.00 | 0.00 | 32 | 1018.3 |
| 20260830193759 | 60 | 302 | 4.0 | 3.0 | 0.00 | 0.00 | 0.00 | 33 | 1018.3 |
| 20260830193300 | 60 | 293 | 1.0 | 1.0 | 0.00 | 0.00 | 0.00 | 33 | 1018.3 |
| 20260830192801 | 61 | 3 | 0.0 | 3.0 | 0.00 | 0.00 | 0.00 | 33 | 1018.2 |
| 20260830192259 | 61 | 308 | 3.0 | 5.0 | 0.00 | 0.00 | 0.00 | 35 | 1018.3 |
| 20260830191800 | 61 | 76 | 3.0 | 2.0 | 0.00 | 0.00 | 0.00 | 33 | 1018.3 |
| 20260830190802 | 61 | 288 | 4.0 | 4.0 | 0.00 | 0.00 | 0.00 | 35 | 1018.3 |
| 20260830190303 | 60 | 308 | 2.0 | 4.0 | 0.00 | 0.00 | 0.00 | 36 | 1018.3 |
| 20260830185801 | 60 | 330 | 5.0 | 4.0 | 0.00 | 0.00 | 0.00 | 37 | 1018.3 |
| 20260830185306 | 59 | 250 | 1.0 | 1.0 | 0.00 | 0.00 | 0.00 | 39 | 1018.2 |
| 20260830184803 | 58 | 347 | 1.0 | 0.0 | 0.00 | 0.00 | 0.00 | 40 | 1018.3 |
| 20260830184304 | 57 | 0 | 2.0 | 1.0 | 0.00 | 0.00 | 0.00 | 42 | 1018.3 |
| 20260830183316 | 57 | 142 | 1.0 | 3.0 | 0.00 | 0.00 | 0.00 | 42 | 1018.2 |
| 20260830182308 | 56 | 87 | 1.0 | 2.0 | 0.00 | 0.00 | 0.00 | 44 | 1018.0 |
| 20260830181806 | 55 | 274 | 2.0 | 0.0 | 0.00 | 0.00 | 0.00 | 45 | 1018.0 |
| 20260830180805 | 55 | 38 | 2.0 | 2.0 | 0.00 | 0.00 | 0.00 | 43 | 1017.8 |
| 20260830180306 | 54 | 114 | 0.0 | 0.0 | 0.00 | 0.00 | 0.00 | 46 | 1017.8 |
| 20260830175308 | 54 | 162 | 1.0 | 2.0 | 0.00 | 0.00 | 0.00 | 48 | 1017.8 |
| 20260830174808 | 54 | 15 | 1.0 | 5.0 | 0.00 | 0.00 | 0.00 | 49 | 1017.7 |
| 20260830173807 | 53 | 96 | 0.0 | 0.0 | 0.00 | 0.00 | 0.00 | 50 | 1017.6 |
| 20260830173308 | 53 | 181 | 1.0 | 1.0 | 0.00 | 0.00 | 0.00 | 51 | 1017.6 |
| 20260830172809 | 52 | 55 | 1.0 | 1.0 | 0.00 | 0.00 | 0.00 | 51 | 1017.6 |
| 20260830172310 | 52 | 46 | 1.0 | 2.0 | 0.00 | 0.00 | 0.00 | 52 | 1017.5 |
| 20260830171808 | 52 | 58 | 2.0 | 3.0 | 0.00 | 0.00 | 0.00 | 51 | 1017.5 |
| 20260830171309 | 52 | 107 | 1.0 | 1.0 | 0.00 | 0.00 | 0.00 | 53 | 1017.3 |
| 20260830170810 | 52 | 93 | 0.0 | 1.0 | 0.00 | 0.00 | 0.00 | 52 | 1017.5 |
| 20260830170311 | 51 | 59 | 1.0 | 0.0 | 0.00 | 0.00 | 0.00 | 50 | 1017.3 |
| 20260830164312 | 49 | 311 | 1.0 | 1.0 | 0.00 | 0.00 | 0.00 | 47 | 1017.2 |
| 20260830163812 | 49 | 75 | 0.0 | 0.0 | 0.00 | 0.00 | 0.00 | 51 | 1017.2 |
| 20260830163313 | 48 | 121 | 0.0 | 2.0 | 0.00 | 0.00 | 0.00 | 53 | 1017.2 |
| 20260830162811 | 47 | 314 | 0.0 | 0.0 | 0.00 | 0.00 | 0.00 | 56 | 1017.2 |
| 20260830162312 | 47 | 314 | 0.0 | 0.0 | 0.00 | 0.00 | 0.00 | 56 | 1017.3 |
| 20260830161813 | 46 | 314 | 0.0 | 0.0 | 0.00 | 0.00 | 0.00 | 64 | 1017.5 |
| 20260830161314 | 46 | 1 | 0.0 | 0.0 | 0.00 | 0.00 | 0.00 | 65 | 1017.5 |
| 20260830160815 | 45 | 1 | 0.0 | 0.0 | 0.00 | 0.00 | 0.00 | 67 | 1017.5 |
| 20260830160313 | 44 | 280 | 0.0 | 0.0 | 0.00 | 0.00 | 0.00 | 72 | 1017.5 |
| 20260830155814 | 44 | 32 | 0.0 | 0.0 | 0.00 | 0.00 | 0.00 | 69 | 1017.5 |
| 20260830155314 | 43 | 281 | 1.0 | 0.0 | 0.00 | 0.00 | 0.00 | 74 | 1017.6 |
| 20260830154815 | 42 | 308 | 0.0 | 0.0 | 0.00 | 0.00 | 0.00 | 73 | 1017.6 |
| 20260830154316 | 42 | 308 | 0.0 | 0.0 | 0.00 | 0.00 | 0.00 | 81 | 1017.5 |
| 20260830153814 | 41 | 308 | 0.0 | 0.0 | 0.00 | 0.00 | 0.00 | 85 | 1017.5 |
| 20260830153315 | 39 | 308 | 0.0 | 0.0 | 0.00 | 0.00 | 0.00 | 91 | 1017.5 |
| 20260830152816 | 38 | 308 | 0.0 | 0.0 | 0.00 | 0.00 | 0.00 | 95 | 1017.5 |
| 20260830152317 | 38 | 308 | 0.0 | 0.0 | 0.00 | 0.00 | 0.00 | 97 | 1017.5 |
| 20260830151818 | 38 | 308 | 0.0 | 0.0 | 0.00 | 0.00 | 0.00 | 98 | 1017.5 |
| 20260830151316 | 37 | 308 | 0.0 | 0.0 | 0.00 | 0.00 | 0.00 | 99 | 1017.5 |
| 20260830150817 | 35 | 308 | 0.0 | 0.0 | 0.00 | 0.00 | 0.00 | 98 | 1017.5 |
| 20260830150317 | 34 | 308 | 0.0 | 0.0 | 0.00 | 0.00 | 0.00 | 98 | 1017.5 |
| 20260830145818 | 33 | 308 | 0.0 | 0.0 | 0.00 | 0.00 | 0.00 | 98 | 1017.6 |
| 20260830145319 | 32 | 308 | 0.0 | 0.0 | 0.00 | 0.00 | 0.00 | 98 | 1017.6 |
| 20260830144817 | 32 | 308 | 0.0 | 0.0 | 0.00 | 0.00 | 0.00 | 97 | 1017.5 |
| 20260830144318 | 31 | 308 | 0.0 | 0.0 | 0.00 | 0.00 | 0.00 | 97 | 1017.5 |
| 20260830143819 | 31 | 308 | 0.0 | 0.0 | 0.00 | 0.00 | 0.00 | 97 | 1017.3 |
| 20260830143320 | 30 | 308 | 0.0 | 0.0 | 0.00 | 0.00 | 0.00 | 97 | 1017.3 |
| 20260830142821 | 29 | 308 | 0.0 | 0.0 | 0.00 | 0.00 | 0.00 | 97 | 1017.3 |
| 20260830142319 | 29 | 308 | 0.0 | 0.0 | 0.00 | 0.00 | 0.00 | 98 | 1017.2 |
| 20260830141819 | 28 | 308 | 0.0 | 0.0 | 0.00 | 0.00 | 0.00 | 97 | 1017.2 |
| 20260830141320 | 28 | 308 | 0.0 | 0.0 | 0.00 | 0.00 | 0.00 | 97 | 1017.2 |
| 20260830140821 | 27 | 308 | 0.0 | 0.0 | 0.00 | 0.00 | 0.00 | 97 | 1017.1 |
| 20260830140414 | 27 | 308 | 0.0 | 0.0 | 0.00 | 0.00 | 0.00 | 97 | 1017.1 |
| 20260830140322 | 27 | 308 | 0.0 | 0.0 | 0.00 | 0.00 | 0.00 | 97 | 1017.1 |
| 20260830135820 | 27 | 308 | 0.0 | 0.0 | 0.00 | 0.00 | 0.00 | 97 | 1017.0 |
| 20260830135321 | 27 | 308 | 0.0 | 0.0 | 0.00 | 0.00 | 0.00 | 97 | 1017.0 |
| 20260830134822 | 27 | 308 | 0.0 | 0.0 | 0.00 | 0.00 | 0.00 | 97 | 1017.0 |
| 20260830134323 | 27 | 308 | 0.0 | 0.0 | 0.00 | 0.00 | 0.00 | 97 | 1017.0 |
| 20260830133824 | 27 | 308 | 0.0 | 0.0 | 0.00 | 0.00 | 0.00 | 97 | 1017.0 |
| 20260830133322 | 27 | 308 | 0.0 | 0.0 | 0.00 | 0.00 | 0.00 | 97 | 1017.0 |
| 20260830132823 | 28 | 308 | 0.0 | 0.0 | 0.00 | 0.00 | 0.00 | 97 | 1017.0 |
| 20260830132324 | 28 | 308 | 0.0 | 0.0 | 0.00 | 0.00 | 0.00 | 97 | 1017.1 |
| 20260830131824 | 27 | 308 | 0.0 | 0.0 | 0.00 | 0.00 | 0.00 | 97 | 1017.1 |
| 20260830131325 | 27 | 308 | 0.0 | 0.0 | 0.00 | 0.00 | 0.00 | 97 | 1017.1 |
| 20260830130823 | 27 | 308 | 0.0 | 0.0 | 0.00 | 0.00 | 0.00 | 97 | 1017.1 |
| 20260830130324 | 28 | 308 | 0.0 | 0.0 | 0.00 | 0.00 | 0.00 | 97 | 1017.1 |
| 20260830125825 | 28 | 308 | 0.0 | 0.0 | 0.00 | 0.00 | 0.00 | 97 | 1017.0 |
| 20260830125326 | 28 | 308 | 0.0 | 0.0 | 0.00 | 0.00 | 0.00 | 97 | 1017.0 |
| 20260830124827 | 28 | 308 | 0.0 | 0.0 | 0.00 | 0.00 | 0.00 | 97 | 1017.0 |
| 20260830124325 | 28 | 308 | 0.0 | 0.0 | 0.00 | 0.00 | 0.00 | 97 | 1017.0 |
| 20260830123825 | 28 | 308 | 0.0 | 0.0 | 0.00 | 0.00 | 0.00 | 96 | 1017.0 |
| 20260830123326 | 28 | 308 | 0.0 | 0.0 | 0.00 | 0.00 | 0.00 | 96 | 1017.0 |
| 20260830122328 | 28 | 308 | 0.0 | 0.0 | 0.00 | 0.00 | 0.00 | 96 | 1016.9 |
| 20260830121826 | 29 | 308 | 0.0 | 0.0 | 0.00 | 0.00 | 0.00 | 96 | 1016.9 |
| 20260830121327 | 29 | 308 | 0.0 | 0.0 | 0.00 | 0.00 | 0.00 | 96 | 1016.9 |
| 20260830120828 | 29 | 308 | 0.0 | 0.0 | 0.00 | 0.00 | 0.00 | 96 | 1016.9 |
| 20260830120328 | 29 | 308 | 0.0 | 0.0 | 0.00 | 0.00 | 0.00 | 96 | 1016.9 |
| 20260830115829 | 30 | 308 | 0.0 | 0.0 | 0.00 | 0.00 | 0.00 | 96 | 1016.9 |
| 20260830115327 | 30 | 308 | 0.0 | 0.0 | 0.00 | 0.00 | 0.00 | 96 | 1016.9 |
| 20260830114828 | 30 | 308 | 0.0 | 0.0 | 0.00 | 0.00 | 0.00 | 96 | 1016.9 |
| 20260830114329 | 30 | 308 | 0.0 | 0.0 | 0.00 | 0.00 | 0.00 | 96 | 1017.0 |
| 20260830113830 | 30 | 308 | 0.0 | 0.0 | 0.00 | 0.00 | 0.00 | 96 | 1017.0 |
| 20260830113331 | 31 | 308 | 0.0 | 0.0 | 0.00 | 0.00 | 0.00 | 96 | 1017.0 |
| 20260830112829 | 31 | 308 | 0.0 | 0.0 | 0.00 | 0.00 | 0.00 | 96 | 1017.0 |
| 20260830112330 | 31 | 308 | 0.0 | 0.0 | 0.00 | 0.00 | 0.00 | 96 | 1017.0 |
| 20260830111831 | 31 | 308 | 0.0 | 0.0 | 0.00 | 0.00 | 0.00 | 96 | 1017.0 |
| 20260830111331 | 31 | 308 | 0.0 | 0.0 | 0.00 | 0.00 | 0.00 | 96 | 1017.0 |
| 20260830110832 | 31 | 308 | 0.0 | 0.0 | 0.00 | 0.00 | 0.00 | 96 | 1017.0 |
| 20260830110330 | 32 | 308 | 0.0 | 0.0 | 0.00 | 0.00 | 0.00 | 96 | 1017.1 |
| 20260830105831 | 32 | 308 | 0.0 | 0.0 | 0.00 | 0.00 | 0.00 | 96 | 1017.1 |
| 20260830105332 | 32 | 308 | 0.0 | 0.0 | 0.00 | 0.00 | 0.00 | 96 | 1017.1 |
| 20260830104833 | 33 | 308 | 0.0 | 0.0 | 0.00 | 0.00 | 0.00 | 96 | 1017.1 |
| 20260830104334 | 33 | 308 | 0.0 | 0.0 | 0.00 | 0.00 | 0.00 | 96 | 1017.0 |
| 20260830103832 | 33 | 308 | 0.0 | 0.0 | 0.00 | 0.00 | 0.00 | 96 | 1017.1 |
| 20260830103333 | 33 | 308 | 0.0 | 0.0 | 0.00 | 0.00 | 0.00 | 96 | 1017.1 |
| 20260830102834 | 33 | 308 | 0.0 | 0.0 | 0.00 | 0.00 | 0.00 | 96 | 1017.1 |
| 20260830102335 | 33 | 308 | 0.0 | 0.0 | 0.00 | 0.00 | 0.00 | 96 | 1017.1 |
| 20260830101836 | 33 | 308 | 0.0 | 0.0 | 0.00 | 0.00 | 0.00 | 96 | 1017.2 |
| 20260830101334 | 34 | 308 | 0.0 | 0.0 | 0.00 | 0.00 | 0.00 | 95 | 1017.2 |
| 20260830100834 | 34 | 308 | 0.0 | 0.0 | 0.00 | 0.00 | 0.00 | 95 | 1017.3 |
| 20260830100335 | 34 | 308 | 0.0 | 0.0 | 0.00 | 0.00 | 0.00 | 95 | 1017.2 |
| 20260830095836 | 34 | 308 | 0.0 | 0.0 | 0.00 | 0.00 | 0.00 | 95 | 1017.2 |
| 20260830095337 | 34 | 308 | 0.0 | 0.0 | 0.00 | 0.00 | 0.00 | 95 | 1017.2 |
| 20260830094835 | 34 | 308 | 0.0 | 0.0 | 0.00 | 0.00 | 0.00 | 95 | 1017.3 |
| 20260830094336 | 35 | 308 | 0.0 | 0.0 | 0.00 | 0.00 | 0.00 | 95 | 1017.3 |
| 20260830093837 | 35 | 308 | 0.0 | 0.0 | 0.00 | 0.00 | 0.00 | 95 | 1017.3 |
| 20260830093338 | 35 | 308 | 0.0 | 0.0 | 0.00 | 0.00 | 0.00 | 96 | 1017.3 |
| 20260830092839 | 35 | 308 | 0.0 | 0.0 | 0.00 | 0.00 | 0.00 | 96 | 1017.5 |
| 20260830092337 | 35 | 308 | 0.0 | 0.0 | 0.00 | 0.00 | 0.00 | 96 | 1017.3 |
| 20260830091838 | 35 | 308 | 0.0 | 0.0 | 0.00 | 0.00 | 0.00 | 96 | 1017.3 |
| 20260830091338 | 35 | 308 | 1.0 | 0.0 | 0.00 | 0.00 | 0.00 | 95 | 1017.3 |
| 20260830090839 | 35 | 315 | 2.0 | 2.0 | 0.00 | 0.00 | 0.00 | 95 | 1017.5 |
| 20260830090340 | 35 | 307 | 2.0 | 2.0 | 0.00 | 0.00 | 0.00 | 95 | 1017.5 |
| 20260830085839 | 35 | 304 | 2.0 | 1.0 | 0.00 | 0.00 | 0.00 | 95 | 1017.5 |
| 20260830085339 | 35 | 311 | 0.0 | 0.0 | 0.00 | 0.00 | 0.00 | 95 | 1017.5 |
| 20260830084840 | 36 | 311 | 0.0 | 0.0 | 0.00 | 0.00 | 0.00 | 95 | 1017.5 |
| 20260830084341 | 36 | 311 | 0.0 | 0.0 | 0.00 | 0.00 | 0.00 | 95 | 1017.6 |
| 20260830083842 | 36 | 311 | 0.0 | 0.0 | 0.00 | 0.00 | 0.00 | 95 | 1017.6 |
| 20260830083340 | 36 | 311 | 0.0 | 0.0 | 0.00 | 0.00 | 0.00 | 95 | 1017.6 |
| 20260830082841 | 36 | 311 | 0.0 | 0.0 | 0.00 | 0.00 | 0.00 | 95 | 1017.6 |
| 20260830082342 | 36 | 311 | 0.0 | 0.0 | 0.00 | 0.00 | 0.00 | 95 | 1017.6 |
| 20260830081843 | 36 | 318 | 0.0 | 3.0 | 0.00 | 0.00 | 0.00 | 95 | 1017.6 |
| 20260830081344 | 36 | 284 | 0.0 | 0.0 | 0.00 | 0.00 | 0.00 | 95 | 1017.7 |
| 20260830080842 | 36 | 284 | 0.0 | 0.0 | 0.00 | 0.00 | 0.00 | 95 | 1017.7 |
| 20260830080342 | 36 | 284 | 0.0 | 0.0 | 0.00 | 0.00 | 0.00 | 95 | 1017.7 |
| 20260830075843 | 36 | 284 | 0.0 | 0.0 | 0.00 | 0.00 | 0.00 | 96 | 1017.7 |
| 20260830075344 | 36 | 284 | 0.0 | 0.0 | 0.00 | 0.00 | 0.00 | 94 | 1017.7 |
| 20260830074845 | 36 | 284 | 0.0 | 0.0 | 0.00 | 0.00 | 0.00 | 94 | 1017.7 |
| 20260830074343 | 36 | 284 | 0.0 | 0.0 | 0.00 | 0.00 | 0.00 | 92 | 1017.8 |
| 20260830073844 | 36 | 284 | 0.0 | 0.0 | 0.00 | 0.00 | 0.00 | 91 | 1017.8 |
| 20260830073345 | 36 | 284 | 0.0 | 0.0 | 0.00 | 0.00 | 0.00 | 91 | 1017.7 |
| 20260830072846 | 36 | 284 | 0.0 | 0.0 | 0.00 | 0.00 | 0.00 | 90 | 1017.7 |
| 20260830072347 | 36 | 284 | 0.0 | 0.0 | 0.00 | 0.00 | 0.00 | 89 | 1017.7 |
| 20260830071845 | 37 | 284 | 0.0 | 0.0 | 0.00 | 0.00 | 0.00 | 89 | 1017.8 |
| 20260830071346 | 37 | 284 | 0.0 | 0.0 | 0.00 | 0.00 | 0.00 | 89 | 1017.7 |
| 20260830070847 | 37 | 284 | 0.0 | 0.0 | 0.00 | 0.00 | 0.00 | 89 | 1017.7 |
| 20260830070348 | 38 | 284 | 0.0 | 0.0 | 0.00 | 0.00 | 0.00 | 89 | 1017.7 |
| 20260830065849 | 38 | 284 | 0.0 | 0.0 | 0.00 | 0.00 | 0.00 | 89 | 1017.8 |
| 20260830065347 | 38 | 284 | 0.0 | 0.0 | 0.00 | 0.00 | 0.00 | 89 | 1017.8 |
| 20260830064848 | 38 | 284 | 0.0 | 0.0 | 0.00 | 0.00 | 0.00 | 89 | 1017.8 |
| 20260830064349 | 38 | 284 | 0.0 | 0.0 | 0.00 | 0.00 | 0.00 | 88 | 1017.8 |
| 20260830063850 | 39 | 284 | 0.0 | 0.0 | 0.00 | 0.00 | 0.00 | 88 | 1017.8 |
| 20260830063351 | 39 | 284 | 0.0 | 0.0 | 0.00 | 0.00 | 0.00 | 88 | 1017.8 |
| 20260830061852 | 39 | 278 | 0.0 | 0.0 | 0.00 | 0.00 | 0.00 | 88 | 1017.8 |
| 20260830061353 | 40 | 278 | 0.0 | 0.0 | 0.00 | 0.00 | 0.00 | 88 | 1017.8 |
| 20260830060854 | 40 | 311 | 2.0 | 1.0 | 0.00 | 0.00 | 0.00 | 88 | 1017.8 |
| 20260830060352 | 40 | 326 | 2.0 | 1.0 | 0.00 | 0.00 | 0.00 | 90 | 1017.8 |
| 20260830055853 | 40 | 277 | 0.0 | 0.0 | 0.00 | 0.00 | 0.00 | 88 | 1017.9 |
| 20260830055354 | 40 | 239 | 1.0 | 0.0 | 0.00 | 0.00 | 0.00 | 87 | 1017.9 |
| 20260830054855 | 40 | 293 | 2.0 | 1.0 | 0.00 | 0.00 | 0.00 | 88 | 1018.0 |
| 20260830054357 | 40 | 312 | 1.0 | 2.0 | 0.00 | 0.00 | 0.00 | 88 | 1018.0 |
| 20260830053356 | 40 | 257 | 2.0 | 1.0 | 0.00 | 0.00 | 0.00 | 88 | 1018.2 |
| 20260830052923 | 40 | 300 | 1.0 | 1.0 | 0.00 | 0.00 | 0.00 | 88 | 1018.2 |
| 20260830052359 | 40 | 312 | 2.0 | 2.0 | 0.00 | 0.00 | 0.00 | 87 | 1018.2 |
| 20260830051357 | 41 | 312 | 3.0 | 2.0 | 0.00 | 0.00 | 0.00 | 87 | 1018.3 |